Time,TemperatureF,DewpointF,PressureIn,WindDirection,WindDirectionDegrees,WindSpeedMPH,WindSpeedGustMPH,Humidity,HourlyPrecipIn,Conditions,Clouds,dailyrainin,SolarRadiationWatts/m^2,SoftwareType,DateUTC
2013-02-10 00:01:00,38.0,16.0,-100.00,NNW,335,7.0,10.0,40,0.00,,,0.00,0.000000,,2013-02-10 08:01:00,
2013-02-10 00:11:00,38.0,16.0,-100.00,NNW,335,7.0,10.0,40,0.00,,,0.00,0.000000,,2013-02-10 08:11:00,
2013-02-10 00:21:00,38.0,16.0,-100.00,NNW,335,7.0,10.0,40,0.00,,,0.00,0.000000,,2013-02-10 08:21:00,
2013-02-10 00:52:00,40.0,16.0,-100.00,NNW,329,7.0,14.0,38,0.00,,,0.00,0.000000,,2013-02-10 08:52:00,
2013-02-10 01:02:00,40.0,16.0,-100.00,NNW,329,7.0,14.0,38,0.00,,,0.00,0.000000,,2013-02-10 09:02:00,
2013-02-10 01:11:00,40.0,16.0,-100.00,NNW,329,7.0,14.0,38,0.00,,,0.00,0.000000,,2013-02-10 09:11:00,
2013-02-10 01:21:00,40.0,16.0,-100.00,NNW,329,7.0,14.0,38,0.00,,,0.00,0.000000,,2013-02-10 09:21:00,
2013-02-10 01:52:00,37.0,13.0,-100.00,NE,36,3.0,8.0,36,0.00,,,-99.99,0.000000,,2013-02-10 09:52:00,
2013-02-10 02:01:00,37.0,13.0,-100.00,NE,36,3.0,8.0,36,0.00,,,-99.99,0.000000,,2013-02-10 10:01:00,
2013-02-10 02:11:00,37.0,13.0,-100.00,NE,36,3.0,8.0,36,0.00,,,-99.99,0.000000,,2013-02-10 10:11:00,
2013-02-10 02:21:00,37.0,13.0,-100.00,NE,36,3.0,8.0,36,0.00,,,-99.99,0.000000,,2013-02-10 10:21:00,
2013-02-10 02:52:00,38.0,15.0,-100.00,East,93,4.0,8.0,39,0.00,,,0.00,0.000000,,2013-02-10 10:52:00,
2013-02-10 03:01:00,38.0,15.0,-100.00,East,93,4.0,8.0,39,0.00,,,0.00,0.000000,,2013-02-10 11:01:00,
2013-02-10 03:11:00,38.0,15.0,-100.00,East,93,4.0,8.0,39,0.00,,,0.00,0.000000,,2013-02-10 11:11:00,
2013-02-10 03:21:00,38.0,15.0,-100.00,East,93,4.0,8.0,39,0.00,,,0.00,0.000000,,2013-02-10 11:21:00,
2013-02-10 03:52:00,36.0,16.0,-100.00,SSW,195,1.0,6.0,43,0.00,,,0.00,0.000000,,2013-02-10 11:52:00,
2013-02-10 04:01:00,36.0,16.0,-100.00,SSW,195,1.0,6.0,43,0.00,,,0.00,0.000000,,2013-02-10 12:01:00,
2013-02-10 04:12:00,36.0,16.0,-100.00,SSW,195,1.0,6.0,43,0.00,,,0.00,0.000000,,2013-02-10 12:12:00,
2013-02-10 04:21:00,36.0,16.0,-100.00,SSW,195,1.0,6.0,43,0.00,,,0.00,0.000000,,2013-02-10 12:21:00,
2013-02-10 06:52:00,36.0,10.0,-100.00,WNW,301,8.0,24.0,33,-99.99,,,0.00,0.000000,,2013-02-10 14:52:00,
2013-02-10 07:01:00,36.0,10.0,-100.00,WNW,301,8.0,24.0,33,-99.99,,,0.00,0.000000,,2013-02-10 15:01:00,
2013-02-10 07:11:00,36.0,10.0,-100.00,WNW,301,8.0,24.0,33,-99.99,,,0.00,0.000000,,2013-02-10 15:11:00,
2013-02-10 07:21:00,36.0,10.0,-100.00,WNW,301,8.0,24.0,33,-99.99,,,0.00,0.000000,,2013-02-10 15:21:00,
2013-02-10 07:52:00,37.0,11.0,-100.00,South,187,16.0,26.0,33,0.00,,,0.00,27.000000,,2013-02-10 15:52:00,
2013-02-10 08:01:00,37.0,11.0,-100.00,South,187,16.0,26.0,33,0.00,,,0.00,27.000000,,2013-02-10 16:01:00,
2013-02-10 08:11:00,37.0,11.0,-100.00,South,187,16.0,26.0,33,0.00,,,0.00,27.000000,,2013-02-10 16:11:00,
2013-02-10 08:21:00,37.0,11.0,-100.00,South,187,16.0,26.0,33,0.00,,,0.00,27.000000,,2013-02-10 16:21:00,
2013-02-10 08:52:00,36.0,9.0,-100.00,NE,51,22.0,29.0,32,0.00,,,0.00,254.000000,,2013-02-10 16:52:00,
2013-02-10 09:01:00,36.0,9.0,-100.00,NE,51,22.0,29.0,32,0.00,,,0.00,254.000000,,2013-02-10 17:01:00,
2013-02-10 09:11:00,36.0,9.0,-100.00,NE,51,22.0,29.0,32,0.00,,,0.00,254.000000,,2013-02-10 17:11:00,
2013-02-10 09:21:00,36.0,9.0,-100.00,NE,51,22.0,29.0,32,0.00,,,0.00,254.000000,,2013-02-10 17:21:00,
2013-02-10 09:52:00,39.0,11.0,-100.00,ENE,74,26.0,35.0,31,0.00,,,0.00,477.000000,,2013-02-10 17:52:00,
2013-02-10 10:02:00,39.0,11.0,-100.00,ENE,74,26.0,35.0,31,0.00,,,0.00,477.000000,,2013-02-10 18:02:00,
2013-02-10 10:11:00,39.0,11.0,-100.00,ENE,74,26.0,35.0,31,0.00,,,0.00,477.000000,,2013-02-10 18:11:00,
2013-02-10 10:21:00,39.0,11.0,-100.00,ENE,74,26.0,35.0,31,0.00,,,0.00,477.000000,,2013-02-10 18:21:00,
2013-02-10 10:52:00,42.0,14.0,-100.00,WNW,288,30.0,45.0,31,0.00,,,0.00,654.000000,,2013-02-10 18:52:00,
2013-02-10 11:01:00,42.0,14.0,-100.00,WNW,288,30.0,45.0,31,0.00,,,0.00,654.000000,,2013-02-10 19:01:00,
2013-02-10 11:11:00,42.0,14.0,-100.00,WNW,288,30.0,45.0,31,0.00,,,0.00,654.000000,,2013-02-10 19:11:00,
2013-02-10 11:21:00,42.0,14.0,-100.00,WNW,288,30.0,45.0,31,0.00,,,0.00,654.000000,,2013-02-10 19:21:00,
2013-02-10 11:52:00,44.0,13.0,-100.00,SSE,154,22.0,39.0,28,0.00,,,0.00,818.000000,,2013-02-10 19:52:00,
2013-02-10 12:01:00,44.0,13.0,-100.00,SSE,154,22.0,39.0,28,0.00,,,0.00,818.000000,,2013-02-10 20:01:00,
2013-02-10 12:11:00,44.0,13.0,-100.00,SSE,154,22.0,39.0,28,0.00,,,0.00,818.000000,,2013-02-10 20:11:00,
2013-02-10 12:21:00,44.0,13.0,-100.00,SSE,154,22.0,39.0,28,0.00,,,0.00,818.000000,,2013-02-10 20:21:00,
2013-02-10 12:52:00,45.0,11.0,-100.00,WSW,243,21.0,32.0,25,0.00,,,0.00,884.000000,,2013-02-10 20:52:00,
2013-02-10 13:02:00,45.0,11.0,-100.00,WSW,243,21.0,32.0,25,0.00,,,0.00,884.000000,,2013-02-10 21:02:00,
2013-02-10 13:11:00,45.0,11.0,-100.00,WSW,243,21.0,32.0,25,0.00,,,0.00,884.000000,,2013-02-10 21:11:00,
2013-02-10 13:21:00,45.0,11.0,-100.00,WSW,243,21.0,32.0,25,0.00,,,0.00,884.000000,,2013-02-10 21:21:00,
2013-02-10 13:52:00,46.0,12.0,-100.00,ENE,78,15.0,30.0,25,0.00,,,0.00,873.000000,,2013-02-10 21:52:00,
2013-02-10 14:01:00,46.0,12.0,-100.00,ENE,78,15.0,30.0,25,0.00,,,0.00,873.000000,,2013-02-10 22:01:00,
2013-02-10 14:11:00,46.0,12.0,-100.00,ENE,78,15.0,30.0,25,0.00,,,0.00,873.000000,,2013-02-10 22:11:00,
2013-02-10 14:21:00,46.0,12.0,-100.00,ENE,78,15.0,30.0,25,0.00,,,0.00,873.000000,,2013-02-10 22:21:00,
2013-02-10 14:52:00,47.0,12.0,-100.00,SW,226,14.0,30.0,24,0.00,,,0.00,653.000000,,2013-02-10 22:52:00,
2013-02-10 15:02:00,47.0,12.0,-100.00,SW,226,14.0,30.0,24,0.00,,,0.00,653.000000,,2013-02-10 23:02:00,
2013-02-10 15:11:00,47.0,12.0,-100.00,SW,226,14.0,30.0,24,0.00,,,0.00,653.000000,,2013-02-10 23:11:00,
2013-02-10 15:21:00,47.0,12.0,-100.00,SW,226,14.0,30.0,24,0.00,,,0.00,653.000000,,2013-02-10 23:21:00,
2013-02-10 15:52:00,46.0,10.0,-100.00,NE,39,9.0,23.0,23,0.00,,,0.00,321.000000,,2013-02-10 23:52:00,
2013-02-10 16:01:00,46.0,10.0,-100.00,NE,39,9.0,23.0,23,0.00,,,0.00,321.000000,,2013-02-11 00:01:00,
2013-02-10 16:11:00,46.0,10.0,-100.00,NE,39,9.0,23.0,23,0.00,,,0.00,321.000000,,2013-02-11 00:11:00,
2013-02-10 16:21:00,46.0,10.0,-100.00,NE,39,9.0,23.0,23,0.00,,,0.00,321.000000,,2013-02-11 00:21:00,
2013-02-10 16:52:00,48.0,11.0,-100.00,NNW,329,9.0,13.0,22,0.00,,,0.00,194.000000,,2013-02-11 00:52:00,
2013-02-10 17:01:00,48.0,11.0,-100.00,NNW,329,9.0,13.0,22,0.00,,,0.00,194.000000,,2013-02-11 01:01:00,
2013-02-10 17:11:00,48.0,11.0,-100.00,NNW,329,9.0,13.0,22,0.00,,,0.00,194.000000,,2013-02-11 01:11:00,
2013-02-10 17:21:00,48.0,11.0,-100.00,NNW,329,9.0,13.0,22,0.00,,,0.00,194.000000,,2013-02-11 01:21:00,
2013-02-10 17:52:00,46.0,10.0,-100.00,NE,55,14.0,19.0,23,0.00,,,0.00,83.000000,,2013-02-11 01:52:00,
2013-02-10 18:01:00,46.0,10.0,-100.00,NE,55,14.0,19.0,23,0.00,,,0.00,83.000000,,2013-02-11 02:01:00,
2013-02-10 18:11:00,46.0,10.0,-100.00,NE,55,14.0,19.0,23,0.00,,,0.00,83.000000,,2013-02-11 02:11:00,
2013-02-10 18:21:00,46.0,10.0,-100.00,NE,55,14.0,19.0,23,0.00,,,0.00,83.000000,,2013-02-11 02:21:00,
2013-02-10 18:52:00,43.0,10.0,-100.00,NE,40,28.0,38.0,25,0.00,,,0.00,1.000000,,2013-02-11 02:52:00,
2013-02-10 19:01:00,43.0,10.0,-100.00,NE,40,28.0,38.0,25,0.00,,,0.00,1.000000,,2013-02-11 03:01:00,
2013-02-10 19:11:00,43.0,10.0,-100.00,NE,40,28.0,38.0,25,0.00,,,0.00,1.000000,,2013-02-11 03:11:00,
2013-02-10 19:21:00,43.0,10.0,-100.00,NE,40,28.0,38.0,25,0.00,,,0.00,1.000000,,2013-02-11 03:21:00,
2013-02-10 19:52:00,41.0,9.0,-100.00,SE,137,24.0,42.0,26,0.00,,,0.00,0.000000,,2013-02-11 03:52:00,
2013-02-10 20:01:00,41.0,9.0,-100.00,SE,137,24.0,42.0,26,0.00,,,0.00,0.000000,,2013-02-11 04:01:00,
2013-02-10 20:11:00,41.0,9.0,-100.00,SE,137,24.0,42.0,26,0.00,,,0.00,0.000000,,2013-02-11 04:11:00,
2013-02-10 20:21:00,41.0,9.0,-100.00,SE,137,24.0,42.0,26,0.00,,,0.00,0.000000,,2013-02-11 04:21:00,
2013-02-10 20:52:00,41.0,10.0,-100.00,NE,42,19.0,30.0,28,0.00,,,0.00,0.000000,,2013-02-11 04:52:00,
2013-02-10 21:01:00,41.0,10.0,-100.00,NE,42,19.0,30.0,28,0.00,,,0.00,0.000000,,2013-02-11 05:01:00,
2013-02-10 21:11:00,41.0,10.0,-100.00,NE,42,19.0,30.0,28,0.00,,,0.00,0.000000,,2013-02-11 05:11:00,
2013-02-10 21:22:00,41.0,10.0,-100.00,NE,42,19.0,30.0,28,0.00,,,0.00,0.000000,,2013-02-11 05:22:00,
2013-02-10 21:52:00,40.0,11.0,-100.00,SE,131,26.0,35.0,30,0.00,,,0.00,0.000000,,2013-02-11 05:52:00,
2013-02-10 22:01:00,40.0,11.0,-100.00,SE,131,26.0,35.0,30,0.00,,,0.00,0.000000,,2013-02-11 06:01:00,
2013-02-10 22:11:00,40.0,11.0,-100.00,SE,131,26.0,35.0,30,0.00,,,0.00,0.000000,,2013-02-11 06:11:00,
2013-02-10 22:21:00,40.0,11.0,-100.00,SE,131,26.0,35.0,30,0.00,,,0.00,0.000000,,2013-02-11 06:21:00,
2013-02-10 22:52:00,39.0,13.0,-100.00,East,98,32.0,40.0,34,0.00,,,0.00,0.000000,,2013-02-11 06:52:00,
2013-02-10 23:01:00,39.0,13.0,-100.00,East,98,32.0,40.0,34,0.00,,,0.00,0.000000,,2013-02-11 07:01:00,
2013-02-10 23:11:00,39.0,13.0,-100.00,East,98,32.0,40.0,34,0.00,,,0.00,0.000000,,2013-02-11 07:11:00,
2013-02-10 23:21:00,39.0,13.0,-100.00,East,98,32.0,40.0,34,0.00,,,0.00,0.000000,,2013-02-11 07:21:00,
2013-02-10 23:52:00,38.0,13.0,-100.00,SE,136,30.0,47.0,36,0.00,,,0.00,0.000000,,2013-02-11 07:52:00,